Theta_e
328 337 344 344 348 345 347 348 345 346 346 345 343 344 345 347 350 352 346 347 348 347 346 346 342 341 341 341 340 342 342 341 342 342 342 342 341 341 341 340 340 340 341 342 339 342 339 345 343
339 340 340 345 348 354 348 343 345 346 345 342 341 341 343 347 344 345 346 347 347 347 346 346 341 341 340 340 339 338 339 342 341 339 338 340 341 340 339 339 338 338 339 340 341 346 347 347 346
335 334 341 344 350 355 348 344 344 344 345 342 343 345 348 348 343 344 345 345 345 346 346 344 341 343 342 340 338 338 338 339 341 338 337 337 339 340 339 337 336 337 337 338 338 342 346 346 344
334 336 342 344 346 345 346 345 342 342 342 340 342 349 348 345 345 344 345 344 345 344 344 343 342 342 341 341 338 337 337 340 338 339 336 335 338 338 338 337 336 335 335 336 335 332 339 344 344
332 340 341 342 345 345 344 344 344 344 343 343 343 347 348 344 344 344 343 342 342 342 342 342 340 339 339 339 339 338 339 337 337 338 338 337 337 337 337 337 336 335 333 333 333 327 326 328 336
335 340 347 346 345 344 344 344 344 344 345 346 345 348 345 341 343 342 342 341 342 342 342 341 338 335 335 335 335 334 334 335 334 333 334 335 331 329 328 329 331 334 331 328 327 325 326 325 326
335 342 342 344 345 345 345 344 345 349 349 351 345 349 343 341 341 340 338 339 339 339 340 340 338 336 332 328 329 329 330 329 329 329 330 330 329 329 329 329 330 331 334 334 329 326 324 326 326
339 338 340 343 345 348 347 345 347 350 350 345 346 349 346 339 339 338 336 337 337 336 335 334 334 333 332 331 325 326 324 321 322 324 327 329 331 331 331 329 333 330 328 330 335 332 326 324 325
338 342 339 341 344 348 345 348 345 343 344 341 340 341 338 335 337 336 334 334 332 330 329 326 322 320 319 322 320 321 319 318 316 318 316 319 325 330 331 332 331 328 329 328 327 328 328 326 325
342 342 341 341 343 347 345 346 346 346 344 342 337 334 334 335 338 336 335 331 328 326 325 325 325 323 320 320 319 320 320 321 322 321 322 323 325 323 319 327 329 327 329 330 330 330 329 327 326
340 341 342 344 344 344 345 345 344 345 344 340 338 333 329 329 329 327 322 321 322 323 323 323 323 322 320 320 320 319 319 318 318 318 319 321 323 325 326 324 325 329 328 328 330 332 333 333 334
342 344 345 345 344 345 345 344 345 345 340 335 334 332 330 326 324 321 321 323 324 324 323 322 322 321 320 319 319 319 318 317 317 317 317 318 320 322 323 323 323 324 324 326 325 322 321 325 328
344 346 346 345 345 345 343 345 344 340 335 332 331 329 327 324 322 321 322 325 325 324 323 322 323 323 322 321 320 319 318 318 317 317 317 317 318 322 324 323 322 321 321 321 323 322 323 323 324
346 346 346 344 344 344 344 343 342 340 336 335 333 332 330 326 323 324 326 327 326 326 325 324 323 324 324 322 321 319 318 318 317 316 316 316 317 319 320 321 321 321 319 319 319 319 319 319 321
345 347 346 345 344 345 342 345 343 339 336 337 335 333 331 326 326 327 328 328 327 326 326 325 324 323 323 321 320 318 317 316 315 315 315 316 316 315 316 318 319 321 320 319 318 317 318 317 317
345 345 351 346 345 343 342 351 342 338 338 337 335 332 330 328 328 328 329 328 327 327 326 325 324 322 322 321 319 317 316 314 314 313 314 313 313 313 314 315 316 318 318 316 317 316 316 316 316
341 344 347 350 344 346 344 349 340 339 337 337 334 332 330 329 328 329 328 329 328 327 326 324 323 321 320 317 317 315 314 313 313 312 312 312 311 312 311 314 316 317 317 318 317 316 316 315 316
339 340 340 343 346 343 343 347 341 337 337 336 334 331 330 328 329 327 328 327 326 325 324 322 321 319 317 315 314 313 313 312 312 312 311 310 309 310 311 311 314 316 316 317 317 318 317 317 317
332 332 334 345 343 342 343 348 344 338 338 335 334 332 329 329 327 327 325 324 324 323 322 320 318 317 315 314 313 313 313 312 312 310 310 310 310 309 309 310 311 313 315 315 316 316 316 317 316
332 334 344 342 342 342 342 344 341 338 338 335 334 332 329 327 329 326 324 324 322 321 320 319 317 314 313 314 313 312 312 312 311 311 310 311 311 311 311 311 311 312 313 314 315 316 316 316 316
338 340 339 339 342 340 341 346 343 340 337 335 333 331 328 329 327 326 324 323 322 320 318 317 315 313 313 313 313 312 312 311 310 310 310 312 312 312 313 313 313 313 314 313 314 315 317 317 317
335 337 334 334 336 338 342 343 346 342 340 336 334 331 328 326 325 323 324 323 321 318 316 316 315 313 313 313 313 313 311 311 311 311 311 312 313 313 312 313 314 314 314 315 316 317 317 318 318
334 334 334 334 336 341 341 337 345 342 342 338 336 330 328 327 323 323 323 322 319 317 315 315 314 313 312 313 313 313 312 311 311 312 311 312 313 313 313 313 313 314 315 315 315 315 317 317 318
334 335 335 337 341 343 341 340 346 344 341 339 335 330 327 325 324 324 323 320 318 316 315 314 314 313 313 313 313 314 312 312 312 312 312 311 313 313 313 313 313 314 314 314 315 315 317 318 317
336 335 337 335 336 336 340 338 345 339 335 335 333 328 327 325 325 324 321 319 317 316 315 314 314 313 313 314 314 314 313 313 313 312 312 312 312 312 313 314 313 314 315 315 315 316 316 318 315
331 333 332 340 330 326 338 343 344 334 330 329 329 328 327 326 325 323 320 318 317 316 315 314 313 312 313 314 314 314 314 313 313 313 313 312 312 312 313 313 313 314 315 313 314 317 315 314 314
329 329 331 330 328 334 340 339 333 332 332 333 331 329 328 326 325 322 319 318 317 316 314 314 312 313 313 314 314 314 313 313 313 313 313 312 312 312 311 312 312 314 315 313 313 313 315 316 313
330 328 332 328 330 329 339 337 332 330 329 330 330 330 328 325 323 320 318 318 316 315 314 313 313 312 313 313 313 313 313 313 314 313 313 313 314 313 312 311 312 314 315 313 312 316 317 316 315
327 329 329 330 337 332 331 338 329 329 327 325 325 326 326 325 322 320 317 317 315 314 313 313 312 312 313 313 314 314 314 313 313 313 313 313 314 313 311 311 312 314 314 315 315 314 314 315 315
329 328 330 332 333 328 327 338 326 325 325 325 324 324 324 323 322 319 317 316 314 313 313 313 313 313 313 313 314 315 315 315 315 314 314 314 314 312 312 311 312 312 314 314 314 313 313 313 314
Wind_Speed
8 10 11 13 6 6 13 9 5 12 16 16 17 17 19 21 15 8 14 12 10 12 11 12 12 11 11 11 13 14 13 12 12 11 10 11 11 11 11 12 12 12 11 11 9 8 7 10 11
10 12 16 9 3 7 12 15 15 12 10 13 15 19 21 23 21 8 14 16 15 14 14 14 13 13 13 13 13 12 12 12 12 10 10 10 10 11 11 12 13 13 13 13 12 12 10 10 9
11 13 4 5 7 4 13 15 14 13 5 10 11 18 11 9 19 8 14 15 16 17 16 16 16 16 15 14 14 12 11 11 11 10 9 8 8 10 10 11 12 12 13 13 13 11 8 6 7
10 12 7 3 17 17 15 13 15 14 12 14 20 15 11 21 12 11 14 14 19 17 17 17 18 17 17 16 15 14 12 11 10 10 8 7 8 8 9 9 10 11 11 12 11 9 7 6 5
15 8 5 13 15 14 12 14 8 12 3 11 17 17 11 14 15 16 16 16 20 19 17 17 19 19 19 17 17 16 15 13 10 9 8 7 7 7 7 7 7 8 8 9 9 7 6 4 2
11 6 5 13 16 13 11 12 13 12 14 17 17 12 4 10 15 15 16 15 16 18 16 17 19 18 18 18 16 14 13 13 12 9 8 6 4 4 4 4 4 4 5 6 6 6 5 3 1
9 12 14 15 14 15 9 15 11 15 15 12 4 7 4 12 12 14 18 17 15 16 17 16 14 17 18 17 16 15 13 11 11 10 8 6 5 5 5 5 5 5 3 4 5 5 4 3 3
14 6 11 11 14 17 9 14 10 12 10 3 10 5 5 5 11 14 16 16 16 17 18 18 16 16 15 14 17 13 13 12 11 10 8 5 8 5 3 3 4 8 7 6 4 5 5 5 5
29 4 15 15 10 17 11 14 11 13 14 10 8 11 10 9 11 15 14 15 17 18 17 18 20 17 14 13 12 11 14 16 16 14 14 10 9 9 9 8 9 8 7 8 10 10 9 8 8
15 3 18 13 11 14 8 12 12 8 12 12 11 13 10 6 7 12 14 16 16 15 14 14 13 9 11 13 10 10 10 12 11 13 15 12 10 10 11 7 12 9 8 7 9 12 10 10 12
20 15 14 13 11 12 14 12 12 12 10 9 10 10 12 16 16 16 18 16 13 12 13 14 13 13 14 13 12 13 13 13 13 14 15 14 13 9 8 7 8 6 10 9 8 5 4 6 7
11 13 14 12 12 13 13 15 13 14 9 11 11 13 14 14 13 12 11 13 13 12 12 12 13 14 14 14 15 15 14 15 15 16 15 16 15 13 13 12 10 10 9 5 5 7 10 13 10
12 12 12 11 10 12 12 13 14 13 12 13 13 13 13 13 11 9 7 8 10 11 10 11 12 12 13 14 16 16 16 16 18 17 16 17 15 15 15 14 13 14 15 11 9 7 7 7 8
13 13 13 13 14 15 17 16 7 12 12 12 12 12 13 14 13 9 8 9 9 9 10 9 10 12 14 16 18 19 18 19 20 19 18 16 15 15 15 16 18 13 16 12 9 12 12 15 13
15 14 14 13 15 14 14 10 11 13 11 11 11 9 11 13 11 10 8 7 7 6 7 10 11 13 15 16 19 20 21 20 20 18 15 14 14 17 20 18 14 18 13 11 14 15 18 17 17
12 15 9 13 12 11 5 8 11 12 10 9 10 9 10 10 9 9 6 5 6 8 12 10 12 14 16 16 19 20 18 18 16 15 15 19 18 20 20 21 21 17 14 13 15 15 18 21 19
8 10 26 16 12 9 10 13 12 9 9 10 9 9 9 8 9 7 3 12 7 8 9 10 12 14 16 17 16 17 15 15 15 15 11 15 18 18 21 21 17 18 17 17 15 12 14 20 19
13 11 11 2 14 8 4 15 13 10 8 10 11 10 9 8 7 3 6 4 8 9 10 11 12 14 17 17 16 15 14 14 13 13 15 17 19 20 18 19 19 13 12 14 14 12 14 16 18
13 17 8 14 4 5 4 14 11 11 12 9 10 10 9 8 8 4 2 7 7 8 9 11 13 15 17 16 17 18 18 16 13 14 11 13 16 16 17 19 18 15 14 13 12 14 15 15 18
18 15 17 8 5 5 7 12 12 12 12 12 10 10 10 7 10 7 8 6 6 7 8 10 12 14 13 17 16 15 15 12 9 14 15 15 14 16 17 17 17 17 15 16 13 13 15 16 17
12 18 25 12 1 11 7 12 12 12 9 10 9 8 9 13 9 11 7 6 5 6 8 10 11 10 9 12 13 15 18 10 14 13 13 14 12 15 14 14 15 16 14 15 14 13 13 14 12
9 12 8 12 14 14 15 6 16 14 13 12 12 11 7 5 4 5 10 4 3 5 7 8 8 7 11 11 13 14 15 12 11 13 13 13 13 14 16 13 13 10 10 11 11 10 10 9 9
8 13 15 21 16 20 13 8 6 14 12 7 7 11 9 9 4 6 5 5 3 4 7 6 7 8 11 11 11 12 14 13 11 13 11 14 12 13 15 13 13 11 10 9 8 10 11 9 7
4 11 18 12 5 1 9 4 7 7 8 10 11 10 9 7 7 7 6 3 3 7 9 10 9 10 11 12 10 10 11 12 12 12 13 12 11 12 15 14 16 13 13 12 11 10 9 8 4
9 12 11 10 8 9 9 8 13 15 10 11 14 10 10 8 7 7 5 4 4 9 11 11 11 9 11 11 12 10 11 12 11 12 12 15 14 14 14 14 16 16 16 12 10 8 8 4 5
18 9 10 18 13 18 19 13 8 12 11 15 9 8 8 4 6 7 5 5 10 11 10 10 12 11 12 12 12 10 10 11 11 14 11 13 12 11 12 14 14 16 17 15 13 9 9 10 9
13 13 7 13 21 15 3 6 12 11 9 10 9 7 7 6 5 4 4 5 10 11 9 10 9 10 10 12 10 10 12 13 13 11 11 11 12 12 11 13 14 14 16 12 15 14 9 9 10
7 10 11 7 13 8 10 10 9 11 9 4 5 6 4 2 6 5 5 6 8 8 7 7 7 8 8 9 11 11 11 12 11 9 10 10 10 9 11 13 12 11 12 13 13 11 9 7 8
13 5 10 6 6 10 3 1 10 13 14 13 11 8 6 5 3 3 2 5 8 9 7 9 8 11 10 9 10 10 10 10 9 8 9 10 10 11 10 10 11 9 9 8 9 9 9 9 9
8 7 9 10 4 3 5 7 10 11 10 9 13 8 8 8 5 5 7 11 12 10 9 8 6 7 7 8 10 12 12 9 8 8 8 10 8 9 10 8 10 12 9 8 8 9 9 11 10
Wind_Direction
215 222 240 252 249 160 108 106 77 71 69 65 63 70 68 46 36 75 76 80 71 84 87 79 79 81 80 74 73 72 72 69 72 73 74 75 75 70 65 63 60 59 62 59 59 62 98 118 118
234 237 245 273 0 331 90 86 82 81 85 113 112 97 75 74 85 62 86 78 81 78 76 75 76 75 74 71 65 65 71 74 74 76 77 79 77 73 66 62 57 53 51 50 51 82 93 118 125
253 244 269 216 95 224 83 80 99 102 149 112 74 45 39 350 62 69 81 80 83 80 78 75 77 76 74 73 70 64 64 70 74 77 79 80 76 68 67 63 60 58 52 49 47 61 72 115 119
260 242 213 180 63 72 82 100 109 111 94 86 129 91 94 37 58 92 86 91 88 83 77 76 75 72 70 70 71 71 67 69 72 73 75 77 70 68 59 55 53 52 51 49 50 54 69 84 102
237 227 134 81 85 74 78 85 59 77 75 86 93 89 73 36 68 71 72 64 71 85 84 78 77 75 70 66 65 64 65 66 69 70 64 66 64 55 53 45 39 41 42 44 39 43 57 66 69
277 49 328 95 86 77 71 80 75 73 77 45 91 90 61 46 62 73 74 71 78 73 70 78 74 67 67 63 61 60 58 56 54 56 54 51 33 17 4 6 359 9 7 17 16 20 26 32 9
198 157 100 101 111 94 66 85 80 70 55 47 20 94 90 57 66 76 71 68 74 75 71 68 69 65 56 63 65 63 58 52 46 40 32 17 348 337 323 316 309 315 328 332 337 330 343 337 328
306 348 126 85 122 107 98 71 75 20 66 95 2 125 113 69 81 84 85 77 68 63 63 63 62 59 53 50 44 46 49 44 38 31 30 29 314 318 275 300 280 302 280 275 278 280 286 294 297
67 338 67 33 60 111 143 104 79 71 67 50 40 64 96 108 107 96 88 83 73 65 63 63 67 62 50 54 44 28 32 25 24 17 7 352 338 333 329 335 313 300 296 272 263 269 282 286 293
103 192 71 65 99 119 136 103 126 102 83 83 69 70 79 71 74 78 75 76 70 67 67 63 57 54 56 43 30 35 36 13 10 6 358 353 337 324 313 312 315 308 310 292 287 269 270 278 260
60 75 88 80 87 108 101 93 104 134 72 76 98 91 72 66 58 68 72 71 72 63 57 57 58 37 23 22 12 3 357 354 348 348 347 339 323 291 295 304 284 285 293 294 288 292 284 281 292
85 82 98 113 117 113 101 93 66 69 102 107 107 115 109 94 85 86 93 85 71 67 58 51 45 35 27 15 9 356 351 346 344 340 339 338 322 306 296 297 293 282 262 272 274 290 269 260 264
123 117 120 126 129 112 134 85 102 102 115 118 117 115 108 103 102 111 128 99 82 68 55 46 35 26 16 7 360 350 342 340 335 332 332 334 321 333 324 317 298 288 288 278 252 259 264 273 263
133 140 135 138 120 118 123 129 138 139 136 138 141 137 131 126 125 130 138 95 72 61 45 28 24 19 10 2 352 341 335 331 329 326 330 325 324 336 318 302 293 304 325 304 326 305 303 287 264
142 152 142 149 153 143 136 120 103 136 152 137 136 138 135 132 148 125 101 74 47 48 35 15 6 8 359 349 342 334 333 330 324 327 328 343 350 332 319 301 293 293 304 300 290 286 279 275 273
192 180 165 176 171 148 229 115 135 146 156 146 159 151 139 162 136 105 92 78 29 14 18 10 0 357 348 342 333 332 332 326 329 328 335 346 338 327 318 309 306 302 284 285 288 285 288 285 277
298 300 216 140 181 153 214 118 154 158 159 167 172 170 148 147 128 98 70 67 21 25 17 8 3 355 344 336 332 323 336 330 329 333 345 346 328 315 311 311 296 302 289 277 285 308 284 297 302
188 220 232 176 154 205 201 114 151 161 188 202 172 165 150 136 127 102 56 87 57 36 22 10 2 358 344 337 339 343 336 337 335 359 341 336 318 319 307 300 298 300 298 288 291 289 282 286 282
319 301 317 86 81 230 111 150 168 180 203 186 181 155 157 171 127 96 106 51 43 37 23 9 356 355 349 353 347 348 339 335 351 336 344 332 319 315 313 298 297 302 291 287 285 289 279 267 272
292 287 64 338 215 230 173 145 151 177 192 186 159 171 149 115 140 171 108 67 60 36 11 7 357 360 359 351 346 343 316 314 348 352 337 335 330 328 317 316 302 300 291 284 288 289 283 286 278
51 35 320 18 167 241 311 150 166 187 180 178 173 148 178 157 124 107 79 49 47 26 13 7 1 6 354 352 354 348 333 1 350 339 342 337 336 339 333 320 308 300 303 288 300 293 284 280 279
354 162 269 310 274 296 184 254 169 175 183 190 177 89 21 112 135 104 135 118 56 18 7 4 16 8 352 360 355 350 332 354 345 331 334 345 348 343 352 346 337 322 306 291 298 305 303 296 285
349 336 313 296 284 350 1 75 260 163 181 171 122 149 203 162 104 100 117 99 59 17 3 7 19 27 359 348 359 352 359 346 338 326 342 354 352 352 355 353 344 342 343 332 321 323 319 299 281
321 291 283 272 327 125 235 212 168 161 186 182 160 150 164 145 110 110 108 130 29 16 4 359 47 30 352 341 342 359 353 342 333 338 344 343 355 0 358 359 2 1 346 335 324 319 319 319 310
249 281 293 312 262 300 214 225 51 48 84 137 145 167 119 113 143 161 177 43 11 17 8 357 40 10 346 342 349 342 345 331 336 343 331 336 352 357 352 354 347 351 346 337 328 319 321 28 27
304 351 316 304 330 313 36 16 102 99 132 127 107 52 96 133 136 108 72 14 13 10 16 355 30 10 343 5 351 347 345 347 343 334 345 331 346 348 350 351 357 358 4 17 9 15 68 55 60
332 316 348 299 275 301 123 176 89 110 87 67 125 158 164 134 74 104 87 11 10 3 19 8 10 2 354 345 9 3 3 0 348 333 332 351 349 338 356 354 357 4 21 36 51 63 65 52 61
295 3 324 326 297 297 84 75 48 81 83 151 96 92 177 22 82 80 17 359 3 4 17 40 31 334 0 345 359 2 353 356 350 348 347 347 348 347 356 355 359 14 28 39 41 42 49 49 37
332 25 334 334 43 298 70 121 45 39 35 10 3 95 105 73 120 59 14 352 2 359 12 51 9 338 347 332 353 343 346 348 353 0 348 350 357 359 356 352 1 20 31 29 17 32 39 46 50
29 357 356 331 354 342 318 33 60 38 31 34 343 50 33 12 4 41 316 19 21 344 45 18 346 333 336 319 350 351 348 332 342 359 2 356 12 2 341 12 5 9 34 27 11 28 33 35 39